This is the latest recevied weather packets stored in our database for station/object KO4LFZ. If no packets are shown the sender has not sent any weather packets the latest 10 day(s).
| Time | Temp. | Humidity | Pressure | Rain* | Wind** | Luminosity | Snow |
|---|---|---|---|---|---|---|---|
| 1778019036 | 17.22° C | 99% | 1006.8 hPa | 0 mm | - | 46 W/m² | - |
| 1778018734 | 17.22° C | 99% | 1006.7 hPa | 1.27 mm | - | 41 W/m² | - |
| 1778018431 | 17.22° C | 99% | 1006.9 hPa | 1.27 mm | - | 37 W/m² | - |
| 1778018129 | 17.22° C | 99% | 1007 hPa | 1.78 mm | - | 52 W/m² | - |
| 1778017826 | 17.22° C | 99% | 1006.8 hPa | 0 mm | - | 57 W/m² | - |
| 1778017525 | 17.22° C | 99% | 1006.9 hPa | 1.27 mm | - | 75 W/m² | - |
| 1778017221 | 17.22° C | 99% | 1007.1 hPa | 1.27 mm | - | 55 W/m² | - |
| 1778016919 | 17.22° C | 99% | 1006.9 hPa | 0 mm | - | 42 W/m² | - |
| 1778016615 | 17.22° C | 99% | 1007 hPa | 1.78 mm | - | 40 W/m² | - |
| 1778016311 | 17.22° C | 99% | 1007 hPa | 1.78 mm | - | 53 W/m² | - |
| 1778016009 | 17.22° C | 99% | 1007.4 hPa | 0 mm | - | 52 W/m² | - |
| 1778015706 | 17.22° C | 99% | 1006.9 hPa | 1.27 mm | - | 68 W/m² | - |
| 1778015402 | 17.22° C | 99% | 1007 hPa | 0 mm | - | 61 W/m² | - |
| 1778015099 | 17.22° C | 99% | 1007.1 hPa | 1.78 mm | - | 54 W/m² | - |
| 1778014796 | 17.22° C | 99% | 1007 hPa | 1.78 mm | - | 79 W/m² | - |
| 1778014495 | 17.22° C | 99% | 1006.9 hPa | 0 mm | - | 72 W/m² | - |
| 1778014191 | 17.22° C | 99% | 1007.1 hPa | 1.78 mm | - | 46 W/m² | - |
| 1778013889 | 17.22° C | 99% | 1007.1 hPa | 1.27 mm | - | 58 W/m² | - |
| 1778013586 | 17.22° C | 99% | 1007.2 hPa | 3.05 mm | - | 56 W/m² | - |
| 1778013282 | 17.22° C | 99% | 1007.3 hPa | 3.05 mm | - | 78 W/m² | - |
| 1778012978 | 17.22° C | 99% | 1007 hPa | 1.78 mm | - | 53 W/m² | - |
| 1778012675 | 17.22° C | 99% | 1007 hPa | 1.78 mm | - | 53 W/m² | - |
| 1778012371 | 17.22° C | 99% | 1007.4 hPa | 0 mm | - | 53 W/m² | - |
| 1778012069 | 17.22° C | 99% | 1007.2 hPa | 1.27 mm | - | 54 W/m² | - |
| 1778011767 | 17.22° C | 99% | 1007.4 hPa | 1.27 mm | - | 61 W/m² | - |
* Rain latest hour (hover to see other rain measurements)
** Current wind speed in m/s (hover to see current wind gust speed)